When you browse on this site, cookies collect data to enhance your experience and personalize the content and advertising you see.
Visit our Privacy Policy to learn more. By continuing to use the site, you agree to this use of cookies and data.
  • Em Portugal
  • Lista de países
  • Para 7 dias
  • Temperatura da água
  • Mapa do tempo
  • Widgets de tempo
  • user-avatar
    Iniciar Sessão

    Previsão horária em Lankaran

    Hoje, 19 Novembro, Terça-feira

    Tempo Temperatura Precipitação Vento Pressão Humidade
    00:00 -2°C° 0.2 mm 2 m/s 636 mmHg 89%
    01:00 -2°C° 0.1 mm 2 m/s 636 mmHg 88%
    02:00 -2°C° 0.1 mm 2 m/s 636 mmHg 88%
    03:00 -2°C° 0 mm 2 m/s 635 mmHg 87%
    04:00 -2°C° 0 mm 2 m/s 635 mmHg 87%
    05:00 -2°C° 0 mm 2 m/s 636 mmHg 87%
    06:00 -3°C° 0 mm 2 m/s 636 mmHg 87%
    07:00 -2°C° 0 mm 2 m/s 636 mmHg 83%
    08:00 -1°C° 0 mm 2 m/s 636 mmHg 78%
    09:00 +1°C° 0 mm 2 m/s 637 mmHg 75%
    10:00 +2°C° 0 mm 2 m/s 637 mmHg 74%
    11:00 +2°C° 0 mm 2 m/s 637 mmHg 73%
    12:00 +3°C° 0 mm 2 m/s 637 mmHg 71%
    13:00 +2°C° 0.1 mm 2 m/s 636 mmHg 74%
    14:00 +2°C° 0.1 mm 2 m/s 636 mmHg 77%
    15:00 +2°C° 0 mm 2 m/s 636 mmHg 78%
    16:00 +2°C° 0 mm 2 m/s 636 mmHg 80%
    17:00 +2°C° 0 mm 2 m/s 636 mmHg 82%
    18:00 +2°C° 0 mm 1 m/s 636 mmHg 84%
    19:00 +2°C° 0.1 mm 1 m/s 636 mmHg 84%
    20:00 +1°C° 0.1 mm 2 m/s 636 mmHg 84%
    21:00 +1°C° 0.1 mm 2 m/s 636 mmHg 84%
    22:00 +1°C° 0.1 mm 2 m/s 636 mmHg 85%
    23:00 +1°C° 0.1 mm 2 m/s 636 mmHg 87%

    Amanhã, 20 Novembro, Quarta-feira

    Tempo Temperatura Precipitação Vento Pressão Humidade
    00:00 +1°C° 0.1 mm 2 m/s 636 mmHg 88%
    01:00 -1°C° 0 mm 2 m/s 635 mmHg 86%
    02:00 -1°C° 0 mm 2 m/s 635 mmHg 84%
    03:00 -1°C° 0 mm 2 m/s 635 mmHg 82%
    04:00 -1°C° 0 mm 2 m/s 635 mmHg 80%
    05:00 +1°C° 0 mm 1 m/s 635 mmHg 79%
    06:00 +1°C° 0 mm 1 m/s 635 mmHg 77%
    07:00 +2°C° 0 mm 1 m/s 636 mmHg 71%
    08:00 +3°C° 0 mm 1 m/s 636 mmHg 66%
    09:00 +4°C° 0 mm 1 m/s 637 mmHg 60%
    10:00 +5°C° 0 mm 1 m/s 637 mmHg 59%
    11:00 +5°C° 0 mm 1 m/s 637 mmHg 58%
    12:00 +5°C° 0 mm 2 m/s 636 mmHg 57%
    13:00 +5°C° 0 mm 2 m/s 636 mmHg 61%
    14:00 +4°C° 0 mm 2 m/s 636 mmHg 66%
    15:00 +4°C° 0 mm 2 m/s 636 mmHg 71%
    16:00 +3°C° 0 mm 2 m/s 635 mmHg 76%
    17:00 +2°C° 0 mm 2 m/s 635 mmHg 81%
    18:00 +1°C° 0 mm 2 m/s 635 mmHg 86%
    19:00 +2°C° 0 mm 1 m/s 635 mmHg 86%
    20:00 +2°C° 0 mm 1 m/s 635 mmHg 87%
    21:00 +1°C° 0 mm 1 m/s 635 mmHg 88%
    22:00 +1°C° 0.2 mm 1 m/s 635 mmHg 89%
    23:00 +1°C° 0.2 mm 1 m/s 635 mmHg 89%

    Depois de amanhã, 21 Novembro, Quinta-feira

    Tempo Temperatura Precipitação Vento Pressão Humidade
    00:00 +1°C° 0.2 mm 1 m/s 635 mmHg 90%
    01:00 +1°C° 0.4 mm 1 m/s 635 mmHg 91%
    02:00 +1°C° 0.4 mm 1 m/s 635 mmHg 91%
    03:00 -1°C° 0.4 mm 2 m/s 635 mmHg 92%
    04:00 -1°C° 0.4 mm 2 m/s 635 mmHg 92%
    05:00 -1°C° 0.4 mm 2 m/s 635 mmHg 93%
    06:00 -1°C° 0.4 mm 2 m/s 635 mmHg 93%
    07:00 -1°C° 0.4 mm 2 m/s 635 mmHg 93%
    08:00 -1°C° 0.4 mm 2 m/s 636 mmHg 92%
    09:00 0°C° 0.4 mm 3 m/s 636 mmHg 92%
    10:00 0°C° 0.6 mm 3 m/s 636 mmHg 92%
    11:00 0°C° 0.6 mm 3 m/s 635 mmHg 93%
    12:00 -1°C° 0.6 mm 3 m/s 635 mmHg 93%
    13:00 -1°C° 0.4 mm 3 m/s 635 mmHg 93%
    14:00 -1°C° 0.4 mm 3 m/s 635 mmHg 93%
    15:00 -1°C° 0.4 mm 3 m/s 635 mmHg 93%
    16:00 -1°C° 0.4 mm 3 m/s 635 mmHg 93%
    17:00 -1°C° 0.4 mm 3 m/s 635 mmHg 94%
    18:00 -1°C° 0.4 mm 3 m/s 635 mmHg 95%
    19:00 -2°C° 0.9 mm 3 m/s 636 mmHg 95%
    20:00 -2°C° 0.9 mm 3 m/s 636 mmHg 95%
    21:00 -2°C° 0.9 mm 3 m/s 636 mmHg 96%
    22:00 -2°C° 1 mm 3 m/s 636 mmHg 95%
    23:00 -2°C° 1 mm 3 m/s 637 mmHg 95%

    22 Novembro, Sexta-feira

    Tempo Temperatura Precipitação Vento Pressão Humidade
    00:00 -2°C° 1 mm 3 m/s 637 mmHg 95%
    01:00 -4°C° 0.8 mm 3 m/s 637 mmHg 95%
    02:00 -4°C° 0.8 mm 3 m/s 637 mmHg 95%
    03:00 -3°C° 0.8 mm 2 m/s 637 mmHg 95%
    04:00 -3°C° 1.2 mm 2 m/s 637 mmHg 95%
    05:00 -3°C° 1.2 mm 2 m/s 637 mmHg 96%
    06:00 -3°C° 1.2 mm 2 m/s 637 mmHg 96%
    07:00 -3°C° 1.5 mm 2 m/s 638 mmHg 95%
    08:00 -4°C° 1.5 mm 3 m/s 638 mmHg 94%
    09:00 -4°C° 1.5 mm 3 m/s 638 mmHg 93%
    10:00 -4°C° 1.5 mm 3 m/s 638 mmHg 93%
    11:00 -4°C° 1.5 mm 3 m/s 638 mmHg 92%
    12:00 -4°C° 1.5 mm 3 m/s 638 mmHg 91%
    13:00 -4°C° 1.3 mm 3 m/s 638 mmHg 92%
    14:00 -4°C° 1.3 mm 3 m/s 638 mmHg 92%
    15:00 -4°C° 1.3 mm 3 m/s 638 mmHg 92%
    16:00 -5°C° 0.9 mm 3 m/s 638 mmHg 93%
    17:00 -4°C° 0.9 mm 2 m/s 638 mmHg 94%
    18:00 -4°C° 0.9 mm 2 m/s 639 mmHg 95%
    19:00 -4°C° 1.2 mm 2 m/s 639 mmHg 95%
    20:00 -4°C° 1.2 mm 2 m/s 639 mmHg 96%
    21:00 -4°C° 1.2 mm 2 m/s 639 mmHg 96%
    22:00 -4°C° 1.4 mm 2 m/s 639 mmHg 96%
    23:00 -4°C° 1.4 mm 2 m/s 639 mmHg 97%

    23 Novembro, Sábado

    Tempo Temperatura Precipitação Vento Pressão Humidade
    00:00 -4°C° 1.4 mm 2 m/s 639 mmHg 97%
    01:00 -4°C° 1.4 mm 2 m/s 639 mmHg 97%
    02:00 -4°C° 1.4 mm 2 m/s 639 mmHg 97%
    03:00 -4°C° 1.4 mm 2 m/s 639 mmHg 97%
    04:00 -4°C° 1 mm 2 m/s 639 mmHg 97%
    05:00 -4°C° 1 mm 2 m/s 639 mmHg 97%
    06:00 -4°C° 1 mm 2 m/s 639 mmHg 97%
    07:00 -4°C° 0.9 mm 2 m/s 639 mmHg 96%
    08:00 -3°C° 0.9 mm 2 m/s 640 mmHg 95%
    09:00 -3°C° 0.9 mm 2 m/s 640 mmHg 94%
    10:00 -3°C° 0.8 mm 2 m/s 640 mmHg 93%
    11:00 -3°C° 0.8 mm 2 m/s 639 mmHg 93%
    12:00 -4°C° 0.8 mm 3 m/s 639 mmHg 93%
    13:00 -4°C° 0.5 mm 3 m/s 639 mmHg 93%
    14:00 -3°C° 0.5 mm 2 m/s 639 mmHg 93%
    15:00 -3°C° 0.5 mm 2 m/s 638 mmHg 93%
    16:00 -3°C° 0.3 mm 2 m/s 638 mmHg 94%
    17:00 -3°C° 0.3 mm 2 m/s 638 mmHg 94%
    18:00 -3°C° 0.3 mm 2 m/s 638 mmHg 95%
    19:00 -1°C° 0.2 mm 1 m/s 638 mmHg 94%
    20:00 -1°C° 0.2 mm 1 m/s 638 mmHg 94%
    21:00 -1°C° 0.2 mm 1 m/s 638 mmHg 93%
    22:00 -2°C° 0.2 mm 1 m/s 638 mmHg 93%
    23:00 -2°C° 0.2 mm 1 m/s 638 mmHg 93%

    24 Novembro, Domingo

    Tempo Temperatura Precipitação Vento Pressão Humidade
    00:00 -3°C° 0.2 mm 0 m/s 638 mmHg 93%
    01:00 -3°C° 0.2 mm 0 m/s 637 mmHg 93%
    02:00 -3°C° 0.2 mm 0 m/s 637 mmHg 93%
    03:00 -3°C° 0.2 mm 0 m/s 637 mmHg 94%
    04:00 -3°C° 0 mm 0 m/s 637 mmHg 93%
    05:00 -3°C° 0 mm 0 m/s 637 mmHg 93%
    06:00 -2°C° 0 mm 1 m/s 637 mmHg 93%
    07:00 -2°C° 0 mm 1 m/s 637 mmHg 92%
    08:00 -1°C° 0 mm 1 m/s 637 mmHg 91%
    09:00 -1°C° 0 mm 1 m/s 638 mmHg 89%
    10:00 -2°C° 0 mm 2 m/s 637 mmHg 88%
    11:00 -2°C° 0 mm 2 m/s 637 mmHg 87%
    12:00 -1°C° 0 mm 2 m/s 637 mmHg 87%
    13:00 -2°C° 0 mm 2 m/s 637 mmHg 87%
    14:00 -2°C° 0 mm 2 m/s 636 mmHg 88%
    15:00 -2°C° 0 mm 2 m/s 636 mmHg 89%
    16:00 -2°C° 0 mm 2 m/s 636 mmHg 91%
    17:00 -1°C° 0 mm 1 m/s 636 mmHg 93%
    18:00 -1°C° 0 mm 1 m/s 636 mmHg 94%
    19:00 -1°C° 0 mm 1 m/s 636 mmHg 93%
    20:00 -1°C° 0 mm 1 m/s 636 mmHg 92%
    21:00 -1°C° 0 mm 1 m/s 636 mmHg 90%
    22:00 -1°C° 0 mm 1 m/s 636 mmHg 90%
    23:00 -1°C° 0 mm 1 m/s 636 mmHg 90%
    Mostrar mais